Location: Brno
(49.2000°N, 16.6330°E)
Time: 10:03:51
(UTC+02:00)

ISS - Pass Details

Date: 23 May 2021
Orbit: 417 x 422 km, 51.6° (Epoch: 13 June)

Event Time Altitude Azimuth Distance (km) Brightness Sun altitude
Rises 23:47:17 0° 290° (WNW) 2,369 0.6 -18.7°
Reaches altitude 10° 23:49:25 10° 286° (WNW) 1,504 -0.6 -18.7°
Enters shadow 23:52:27 54° 231° (SW) 518 -3.5 -18.9°
